{"data":{"norad_id":68814,"epoch":"2026-09-20T00:14:49.480224Z","epoch_age_seconds":82380,"freshness":"FRESH","line1":"1 68814U 26089N   26263.01029491  .00022995  00000+0  71206-3 0  9992","line2":"2 68814  97.2863 108.7749 0001400  82.5113 277.6289 15.33461304 23180","mean_motion":15.33461304,"eccentricity":0.00014,"inclination_deg":97.2863,"raan_deg":108.7749,"arg_perigee_deg":82.5113,"mean_anomaly_deg":277.6289,"bstar":0.00071206,"rev_number":2318,"period_min":93.905206231405,"perigee_km":464.53655724158,"apogee_km":466.45277410797,"semimajor_km":6843.6316656748,"source":"CELESTRAK","updated_at":"2026-09-20T09:00:44.009114Z"}}